Dansville, NY

8:28 PM EST on December 05, 2016 (GMT -0500)
Dansville Municipal

Weather History for KDSV - August, 2013

Change the Weather History Date:

Tuesday, August 20, 2013

  Actual Average Record
Temperature  
Mean Temperature 70 °F -  
Max Temperature 84 °F 80 °F 96 °F (1955)
Min Temperature 57 °F 52 °F 41 °F (1977)
Cooling Degree Days 6    
Growing Degree Days 20 (Base 50)    
Moisture  
Dew Point 59 °F    
Average Humidity 72    
Maximum Humidity 96    
Minimum Humidity 37    
Precipitation  
Precipitation 0.00 in - - ()
Sea Level Pressure  
Sea Level Pressure 30.16 in    
Wind  
Wind Speed 4 mph (SSE)    
Max Wind Speed 12 mph    
Max Gust Speed 16 mph    
Visibility 10 miles    
Events      
Averages and records for this station are not official NWS values.
T = Trace of Precipitation, MM = Missing Value Source: NWS Daily Summary

Daily Weather History Graph

Daily Weather History Graph

Search for Another Location

Airport or City:

Trip Planner

Search our weather history database for the weather conditions in past years. The results will help you decide how hot, cold, wet, or windy it might be!

Date:

Astronomy

Aug. 20, 2013 Rise Set
Actual Time 6:23 AM EDT 8:04 PM EDT
Civil Twilight 5:53 AM EDT 8:34 PM EDT
Nautical Twilight 5:16 AM EDT 9:10 PM EDT
Astronomical Twilight 4:37 AM EDT 9:49 PM EDT
Moon 7:33 PM EDT (8/20) 5:51 AM EDT (8/20)
Length of Visible Light 14h 40m
Length of Day
13h 41m
Full, 100% of the Moon is Illuminated
Aug 20
Full
Aug 20
Full
Aug 28
Last Quarter
Sep 5
New
Sep 12
First Quarter

Hourly Weather History & Observations

Time (EDT) Temp. Heat Index Dew Point Humidity Pressure Visibility Wind Dir Wind Speed Gust Speed Precip Events Conditions
12:54 AM 62.1 °F - 59.0 °F 90% 30.12 in 10.0 mi Calm Calm - N/A   Clear
1:54 AM 61.0 °F - 59.0 °F 93% 30.12 in 10.0 mi Calm Calm - N/A   Clear
2:54 AM 59.0 °F - 57.9 °F 96% 30.13 in 9.0 mi Calm Calm - N/A   Clear
3:54 AM 59.0 °F - 57.0 °F 93% 30.14 in 9.0 mi SSE 3.5 mph - N/A   Clear
4:54 AM 59.0 °F - 57.0 °F 93% 30.14 in 9.0 mi SSE 5.8 mph - N/A   Clear
5:54 AM 57.9 °F - 55.9 °F 93% 30.15 in 9.0 mi SE 9.2 mph - N/A   Clear
6:54 AM 57.9 °F - 55.9 °F 93% 30.18 in 8.0 mi SE 5.8 mph - N/A   Clear
7:54 AM 59.0 °F - 57.0 °F 93% 30.19 in 10.0 mi SE 9.2 mph - N/A   Clear
8:54 AM 64.0 °F - 59.0 °F 84% 30.19 in 10.0 mi SE 8.1 mph - N/A   Clear
9:54 AM 70.0 °F - 61.0 °F 73% 30.19 in 10.0 mi SE 6.9 mph - N/A   Clear
10:54 AM 75.9 °F - 62.1 °F 62% 30.18 in 10.0 mi ESE 4.6 mph - N/A   Clear
11:54 AM 80.1 °F 80.9 °F 60.1 °F 50% 30.18 in 10.0 mi Variable 3.5 mph - N/A   Partly Cloudy
12:54 PM 82.0 °F 82.4 °F 60.1 °F 47% 30.17 in 10.0 mi NNW 8.1 mph - N/A   Partly Cloudy
1:54 PM 82.9 °F 82.8 °F 59.0 °F 44% 30.16 in 10.0 mi Variable 5.8 mph - N/A   Clear
2:54 PM 84.0 °F 82.9 °F 55.0 °F 37% 30.15 in 10.0 mi WNW 10.4 mph 16.1 mph N/A   Clear
3:54 PM 84.0 °F 83.3 °F 57.0 °F 40% 30.15 in 10.0 mi West 5.8 mph - N/A   Clear
4:54 PM 84.0 °F 83.5 °F 57.9 °F 41% 30.14 in 10.0 mi NW 11.5 mph - N/A   Clear
5:54 PM 82.9 °F 82.6 °F 57.9 °F 42% 30.14 in 10.0 mi WNW 3.5 mph - N/A   Clear
6:54 PM 81.0 °F 81.9 °F 62.1 °F 52% 30.14 in 10.0 mi North 3.5 mph - N/A   Clear
7:54 PM 75.9 °F - 63.0 °F 64% 30.15 in 10.0 mi Calm Calm - N/A   Clear
8:54 PM 69.1 °F - 64.0 °F 84% 30.17 in 10.0 mi SSE 3.5 mph - N/A   Clear
9:54 PM 66.9 °F - 63.0 °F 87% 30.18 in 10.0 mi South 3.5 mph - N/A   Clear
10:54 PM 66.0 °F - 62.1 °F 87% 30.19 in 10.0 mi Calm Calm - N/A   Clear
11:54 PM 64.9 °F - 61.0 °F 87% 30.20 in 10.0 mi SE 5.8 mph - N/A   Clear